THORAD AGENA D DEB, 4659

Orbit data source: Space-Track

THORAD AGENA D DEB, 4659 is space debris in SSO originally from a launch on Wed, 08 Apr 1970 UTC launched from the Air Force Western Test Range (AFWTR). Debris objects in space refer to the collection of defunct objects orbiting the Earth. Examples of debris include non-operational satellites, rocket bodies, and fragments generated from explosions, collisions, or faulty payload assembly.

Loading next visibility...
Identifier
4659, 1970-025AT
Orbit
SSO
Country
Flag of USUS
Related business
Manufacturer
Unknown
Mission
Spacecraft
Bus & Motor
Unknown
Mass
Unknown
Launch date (UTC)
1970-04-08 (56 years ago)
Launch vehicle
Unknown
Launch site
Air Force Western Test Range (AFWTR)
Object type
Payload
Rocket body
Debris
Shape & HBR
Unknown shape, 0.1 m
Radar Cross Section
Small (<0.1 m²)

Expand to show TLE details & history
Last TLE update: 7 hours ago

TLE from 7 hours ago
0 THORAD AGENA D DEB
1 04659U 70025AT  26034.25433949  .00001723  00000-0  13539-2 0  9998
2 04659 100.0833 145.2617 0012670 243.5735 116.4122 13.93459875790010
Epoch: 2026-02-03T06:06Z
TLE epoch observation values (Epoch: 2026-02-03T06:06:14.931Z)
Latitude
-0.00008°
Longitude
-79.73841°
Altitude
923.484 km
Speed
7.388 km/s
True Right ascension
09h 41m 02s
True Declination
0° 00' 00"
Sunlit
Object was in full shadow at epoch
Visualization orbit readout
Latitude
Unknown
Longitude
Unknown
Altitude
Unknown
Speed
Unknown
Apparent Right ascension
Unknown
Apparent Declination
Unknown
Sunlit
N/A
Visualization observer readout
Local Sidereal Time
14:57:20
Azimuth
Unknown
Elevation
Unknown
Doppler factor
Unknown
Orbital elements
Apogee altitude
923.034 km
Perigee altitude
904.556 km
Semi-major axis
7,291.932 km
Eccentricity
0.00127
Inclination
100.0833°
RAAN
145.2617°
Arg. of periapsis
243.5735°
True anomaly
116.54214°
Mean anomaly
116.4122°
Eccentric anomaly
116.47718°
Mean motion
3.48561 °/min
Orbital period
103.28 mins
BSTAR
0.0013539
Loading maneuver chart data...
Computing Atmospheric mass density...

Documentation

Showing up to 5 results
|